Location: Newark
(13.6797°N, 8.5297°E)
Time: 04:59:02
(UTC+00:00)

Courier 1B Rocket - Pass Details

Date: 23 January 2020
Orbit: 920 x 1202 km, 28.2° (Epoch: 19 February)

Event Time Altitude Azimuth Distance (km) Brightness Sun altitude
Rises 14:45:49 0° 302° (WNW) 3,700 8.3 33.0°
Reaches altitude 10° 14:49:07 10° 316° (NW) 2,706 7.5 32.4°
Maximum altitude 14:54:12 24° 8° (N) 1,853 6.3 31.4°
Drops below altitude 10° 14:59:08 10° 60° (ENE) 2,614 6.8 30.4°
Sets 15:02:15 0° 74° (ENE) 3,546 7.4 29.7°
